Вернуться в каталог

STARLINK-37822

АктивенСвязьSSO
NORAD 69424·PAYLOAD·🇺🇸 United States

Запущен Jun 7, 2026 с Vandenberg Space Force Base

Loading…

Ближайшие Пролёты (ближайшие 24 часа)

TLE

СвежийSource: CelesTrak SupGP

Эпоха: Sep 14, 2026, 23:27 UTC

1 69424C 26126E   26257.97756944  .00081165  00000+0  25212-2 0  2576
2 69424  97.2844 119.3275 0001452 102.1889 145.3932 15.33377364    10

Отслеживайте STARLINK-37822 в реальном времени с AllMySat

Download on the App Store